Weather History for Dumas, TX

Change the Weather History Date:

Sunday, January 6, 2013

  Actual Average (KBGD) Record (KBGD)
Temperature  
Mean Temperature 32 °F 38 °F  
Max Temperature 46 °F 50 °F 77 °F (1965)
Min Temperature 17 °F 25 °F -3 °F (1971)
Degree Days  
Heating Degree Days 34 27  
Month to date heating degree days 166  
Since 1 July heating degree days 1703  
Cooling Degree Days 0 0  
Month to date cooling degree days 0  
Year to date cooling degree days 0  
Moisture  
Dew Point 19 °F    
Average Humidity 64    
Maximum Humidity 86    
Minimum Humidity 37    
Precipitation  
Precipitation 0.00 in 0.02 in 0.69 in (1988)
Month to date precipitation 0.10  
Year to date precipitation 0.10  
Snow  
Snow 0.00 in - 8.20 in (1988)
Month to date snowfall  
Since 1 July snowfall  
Snow Depth -    
Sea Level Pressure  
Sea Level Pressure 30.31 in    
Wind  
Wind Speed 10 mph (SW)    
Max Wind Speed 18 mph    
Max Gust Speed 23 mph    
Visibility 10 miles    
Events      
T = Trace of Precipitation, MM = Missing Value Source: NWS Daily Summary

Daily Weather History Graph

Daily Weather History Graph

Search for Another Location

Airport:

Trip Planner

Search our weather history database for the weather conditions in past years. The results will help you decide how hot, cold, wet, or windy it might be!

Date:

Astronomy

Jan. 06, 2013 Rise Set
Actual Time 7:58 AM CST 5:49 PM CST
Civil Twilight 7:30 AM CST 6:17 PM CST
Nautical Twilight 6:58 AM CST 6:49 PM CST
Astronomical Twilight 6:27 AM CST 7:20 PM CST
Moon 2:19 AM CST (1/6) 1:14 PM CST (1/6)
Length of Visible Light 10h 47m
Length of Day
9h 50m
Waning Crescent, 33% of the Moon is Illuminated
Jan 6
Waning Crescent
Jan 11
New
Jan 18
First Quarter
Jan 26
Full
Feb 3
Last Quarter

Hourly Weather History & Observations

Time (CST) Temp. Windchill Dew Point Humidity Pressure Visibility Wind Dir Wind Speed Gust Speed Precip Events Conditions
12:15 AM 26.6 °F 18.2 °F 19.4 °F 74% 30.37 in 10.0 mi WNW 8.1 mph - N/A   Clear
12:35 AM 23.0 °F 13.1 °F 19.4 °F 86% 30.37 in 10.0 mi West 9.2 mph - N/A   Clear
12:55 AM 23.0 °F 13.9 °F 17.6 °F 80% 30.37 in 10.0 mi West 8.1 mph - N/A   Clear
1:15 AM 21.2 °F 10.9 °F 17.6 °F 86% 30.37 in 10.0 mi West 9.2 mph - N/A   Clear
1:35 AM 23.0 °F 13.9 °F 17.6 °F 80% 30.36 in 10.0 mi West 8.1 mph - N/A   Clear
1:55 AM 21.2 °F 13.6 °F 17.6 °F 86% 30.37 in 10.0 mi West 5.8 mph - N/A   Clear
2:15 AM 21.2 °F 13.6 °F 17.6 °F 86% 30.37 in 10.0 mi West 5.8 mph - N/A   Clear
2:35 AM 21.2 °F 11.7 °F 17.6 °F 86% 30.37 in 10.0 mi West 8.1 mph - N/A   Clear
2:55 AM 21.2 °F 10.9 °F 17.6 °F 86% 30.37 in 10.0 mi West 9.2 mph - N/A   Clear
3:15 AM 21.2 °F 10.9 °F 17.6 °F 86% 30.37 in 10.0 mi West 9.2 mph - N/A   Clear
3:35 AM 21.2 °F 10.9 °F 15.8 °F 80% 30.37 in 10.0 mi WNW 9.2 mph - N/A   Clear
3:55 AM 21.2 °F 10.1 °F 14.0 °F 74% 30.36 in 10.0 mi West 10.4 mph - N/A   Clear
4:15 AM 19.4 °F 10.4 °F 14.0 °F 80% 30.36 in 10.0 mi WNW 6.9 mph - N/A   Clear
4:35 AM 19.4 °F 11.5 °F 14.0 °F 80% 30.35 in 10.0 mi West 5.8 mph - N/A   Clear
4:55 AM 21.2 °F 13.6 °F 14.0 °F 74% 30.35 in 10.0 mi West 5.8 mph - N/A   Clear
5:15 AM 19.4 °F 9.5 °F 14.0 °F 80% 30.34 in 10.0 mi West 8.1 mph - N/A   Clear
5:35 AM 19.4 °F 9.5 °F 14.0 °F 80% 30.34 in 10.0 mi West 8.1 mph - N/A   Clear
5:55 AM 21.2 °F 10.1 °F 14.0 °F 74% 30.35 in 10.0 mi West 10.4 mph - N/A   Clear
6:15 AM 19.4 °F 8.6 °F 14.0 °F 80% 30.35 in 10.0 mi West 9.2 mph - N/A   Clear
6:35 AM 19.4 °F 8.6 °F 14.0 °F 80% 30.35 in 10.0 mi West 9.2 mph - N/A   Clear
6:55 AM 19.4 °F 9.5 °F 14.0 °F 80% 30.35 in 10.0 mi West 8.1 mph - N/A   Clear
7:15 AM 19.4 °F 8.6 °F 12.2 °F 74% 30.35 in 10.0 mi West 9.2 mph - N/A   Clear
7:55 AM 19.4 °F 8.6 °F 12.2 °F 74% 30.36 in 10.0 mi West 9.2 mph - N/A   Clear
8:15 AM 17.6 °F 7.3 °F 12.2 °F 79% 30.36 in 10.0 mi West 8.1 mph - N/A   Clear
8:35 AM 19.4 °F 9.5 °F 14.0 °F 80% 30.37 in 10.0 mi West 8.1 mph - N/A   Clear
8:55 AM 23.0 °F 13.9 °F 15.8 °F 74% 30.37 in 10.0 mi West 8.1 mph - N/A   Clear
9:35 AM 28.4 °F 19.7 °F 19.4 °F 69% 30.38 in 10.0 mi WSW 9.2 mph - N/A   Clear
9:55 AM 30.2 °F 21.3 °F 21.2 °F 69% 30.38 in 10.0 mi WSW 10.4 mph - N/A   Clear
10:15 AM 32.0 °F 23.0 °F 23.0 °F 69% 30.39 in 10.0 mi WSW 11.5 mph - N/A   Clear
10:35 AM 33.8 °F 25.3 °F 23.0 °F 65% 30.40 in 10.0 mi WSW 11.5 mph - N/A   Clear
10:55 AM 35.6 °F 28.0 °F 24.8 °F 65% 30.40 in 10.0 mi WSW 10.4 mph - N/A   Clear
11:15 AM 37.4 °F 29.3 °F 23.0 °F 56% 30.39 in 10.0 mi SW 12.7 mph - N/A   Clear
11:35 AM 39.2 °F 31.6 °F 23.0 °F 52% 30.39 in 10.0 mi SW 12.7 mph - N/A   Clear
11:55 AM 41.0 °F 32.8 °F 21.2 °F 45% 30.38 in 10.0 mi WSW 16.1 mph - N/A   Clear
12:15 PM 41.0 °F 32.8 °F 21.2 °F 45% 30.36 in 10.0 mi SW 16.1 mph - N/A   Clear
12:35 PM 41.0 °F 32.5 °F 21.2 °F 45% 30.35 in 10.0 mi SW 17.3 mph - N/A   Clear
12:55 PM 41.0 °F 32.8 °F 21.2 °F 45% 30.33 in 10.0 mi SW 16.1 mph - N/A   Clear
1:15 PM 42.8 °F 34.5 °F 21.2 °F 42% 30.32 in 10.0 mi SW 18.4 mph - N/A   Clear
1:35 PM 42.8 °F 34.8 °F 21.2 °F 42% 30.30 in 10.0 mi SSW 17.3 mph - N/A   Clear
1:55 PM 42.8 °F 35.1 °F 23.0 °F 46% 30.29 in 10.0 mi SW 16.1 mph - N/A   Clear
2:15 PM 42.8 °F 35.1 °F 23.0 °F 46% 30.28 in 10.0 mi SSW 16.1 mph 23.0 mph N/A   Clear
2:55 PM 44.6 °F 38.8 °F 23.0 °F 43% 30.26 in 10.0 mi SSW 11.5 mph - N/A   Clear
3:15 PM 44.6 °F 37.4 °F 23.0 °F 43% 30.25 in 10.0 mi SSW 16.1 mph - N/A   Clear
3:35 PM 46.4 °F 40.7 °F 23.0 °F 40% 30.24 in 10.0 mi SSW 12.7 mph 19.6 mph N/A   Clear
3:55 PM 46.4 °F 39.5 °F 21.2 °F 37% 30.24 in 10.0 mi SSW 17.3 mph - N/A   Clear
4:15 PM 46.4 °F 39.5 °F 21.2 °F 37% 30.24 in 10.0 mi SSW 17.3 mph 21.9 mph N/A   Clear
4:35 PM 46.4 °F 39.8 °F 21.2 °F 37% 30.22 in 10.0 mi SSW 16.1 mph - N/A   Clear
4:55 PM 44.6 °F 37.2 °F 21.2 °F 39% 30.22 in 10.0 mi South 17.3 mph 21.9 mph N/A   Clear
5:15 PM 44.6 °F 38.4 °F 21.2 °F 39% 30.22 in 10.0 mi South 12.7 mph - N/A   Clear
5:35 PM 41.0 °F 34.7 °F 21.2 °F 45% 30.22 in 10.0 mi South 10.4 mph - N/A   Clear
5:55 PM 37.4 °F 30.8 °F 19.4 °F 48% 30.21 in 10.0 mi South 9.2 mph - N/A   Clear
6:15 PM 32.0 °F 24.2 °F 19.4 °F 60% 30.21 in 10.0 mi South 9.2 mph - N/A   Clear
6:35 PM 32.0 °F 23.6 °F 19.4 °F 60% 30.21 in 10.0 mi South 10.4 mph - N/A   Clear
6:55 PM 32.0 °F 23.6 °F 19.4 °F 60% 30.21 in 10.0 mi South 10.4 mph - N/A   Clear
7:15 PM 32.0 °F 23.6 °F 19.4 °F 60% 30.21 in 10.0 mi South 10.4 mph - N/A   Clear
7:35 PM 32.0 °F 23.0 °F 21.2 °F 64% 30.21 in 10.0 mi South 11.5 mph - N/A   Clear
8:15 PM 33.8 °F 23.9 °F 21.2 °F 60% 30.21 in 10.0 mi South 15.0 mph - N/A   Clear
8:55 PM 32.0 °F 22.1 °F 21.2 °F 64% 30.21 in 10.0 mi South 13.8 mph - N/A   Clear
9:55 PM 32.0 °F 23.0 °F 21.2 °F 64% 30.20 in 10.0 mi South 11.5 mph - N/A   Clear
10:15 PM 32.0 °F 22.5 °F 21.2 °F 64% 30.20 in 10.0 mi South 12.7 mph - N/A   Clear
10:35 PM 32.0 °F 22.5 °F 21.2 °F 64% 30.19 in 10.0 mi South 12.7 mph - N/A   Clear
10:55 PM 32.0 °F 22.5 °F 21.2 °F 64% 30.19 in 10.0 mi South 12.7 mph - N/A   Clear
11:35 PM 32.0 °F 22.1 °F 19.4 °F 60% 30.19 in 10.0 mi SSW 13.8 mph - N/A   Clear
11:55 PM 30.2 °F 21.3 °F 19.4 °F 64% 30.18 in 10.0 mi South 10.4 mph - N/A   Clear